Preview of NWS' New Version of Forecast
This preview is not operational and should not be used for support decisions.

Regional Weather Roundup (RWR)

Issued by National Weather Service (NWS)

                            
000
ASUS45 KBOI 191010
RWRID 

IDAHO REGIONAL WEATHER ROUNDUP
NATIONAL WEATHER SERVICE BOISE ID
400 AM MDT FRI APR 19 2019

NOTE: "FAIR" INDICATES FEW OR NO CLOUDS BELOW 12000 FEET
WITH NO SIGNIFICANT WEATHER AND/OR OBSTRUCTIONS TO VISIBILITY

IDZ012-014-191100-
SOUTHWEST IDAHO

  
CITY           SKY/WX    TMP DP  RH WIND       PRES   REMARKS
BOISE          FAIR      54  38  54 E12       30.09F                  
CALDWELL       FAIR      47  41  80 NE5       30.09F                  
MOUNTAIN HOME  FAIR      46  44  94 CALM      30.11F                  
$$

IDZ016-017-191100-
SOUTHCENTRAL IDAHO

  
CITY           SKY/WX    TMP DP  RH WIND       PRES   REMARKS
BURLEY         FAIR      44  36  73 S3        30.17S                  
JEROME         FAIR      46  36  68 E6        30.16F                  
TWIN FALLS     FAIR      45  37  73 S9        30.16F                  
$$

IDZ019>023-191100-
SOUTHEAST IDAHO

  
CITY           SKY/WX    TMP DP  RH WIND       PRES   REMARKS
IDAHO FALLS    FAIR      42  34  73 W3        30.21S                  
POCATELLO      FAIR      42  34  73 CALM      30.20S                  
REXBURG        FAIR      38  32  79 N5        30.21S WCI  34          
$$

IDZ006-010-011-018-031-032-191100-
CENTRAL IDAHO MOUNTAINS

  
CITY           SKY/WX    TMP DP  RH WIND       PRES   REMARKS
MCCALL         FAIR      34  30  85 CALM      30.17F                  
HAILEY         FAIR      43  32  65 NW10G18   30.23F                  
STANLEY          N/A     28  24  85 CALM      30.28F                  
SALMON         FAIR      37  34  89 CALM      30.17S                  
CHALLIS        FAIR      43  31  62 E3        30.20F                  
$$

IDZ002-004-006-007-026-191100-
NORTHERN IDAHO

  
CITY           SKY/WX    TMP DP  RH WIND       PRES   REMARKS
LEWISTON       CLOUDY    57  47  69 E3        30.00F                  
LOWELL         NOT AVBL                                               
COEUR D'ALENE  FAIR      54  47  77 SE8       29.98F                  
MULLAN PASS    CLOUDY    43  39  86 VRB7      30.08F                  
$$